[[{"header":{"parameterUnit":"m.s-1","parameterCategory":1,"la1":30.2991,"la2":30.254,"lo1":-89.0895,"lo2":-89.0444,"dy":0.0017,"dx":0.0017,"nx":28,"ny":28,"refTime":"2025-05-19T03:00:00:Z","depth":0,"parameterNumber":2,"parameterNumberName":"U-component_of_WINDS"},"data":[0,0,0,0,0,0,0,0,0,0,0,0,0,0,0,0,0,0,0,0,0,0,0,0,0,0,0,0,0,0,0,0,0,0,0,0,0,0,0,0,0,0,0,0,0,0,0,0,0,0,0,0,0,0,0,0,0,0,0.2171,0.217,0,0.2118,0.2117,0.2116,0.2082,0.2082,0.2082,0.2082,0.2025,0.2024,0.2022,0,0,0,0,0,0,0,0,0,0,0,0,0,0.224,0.2239,0.2171,0.217,0.217,0.2118,0.2117,0.2116,0.2082,0.2082,0.2082,0.2082,0.2025,0.2024,0.2022,0,0,0,0,0,0,0,0,0,0,0,0,0,0.2201,0.2239,0.2171,0.2146,0.2144,0.2118,0.2117,0.2116,0.2082,0.2082,0.2082,0.2082,0.2026,0.2024,0.2022,0.2016,0,0,0.2016,0.2015,0,0,0,0,0,0,0,0,0.2203,0.2198,0.2151,0.2148,0.2145,0.2106,0.2121,0.2082,0.2082,0.2106,0.2082,0.2081,0.2052,0.2048,0.2039,0.2013,0.2011,0.2016,0.2015,0.2014,0.2013,0,0,0,0,0,0,0,0.2206,0.22,0.215,0.215,0.2147,0.2137,0.2131,0.2113,0.2081,0.2104,0.2101,0.2095,0.2051,0.2041,0.2037,0.201,0.2016,0.2014,0.2013,0.2012,0.1974,0.1975,0,0,0,0,0,0,0.2213,0.2203,0.2151,0.2148,0.2174,0.2136,0.2129,0.2119,0.2081,0.2075,0.2096,0.2094,0.2044,0.2039,0.2035,0.2024,0.2014,0.2012,0.2011,0.1974,0.1974,0.1975,0,0,0,0,0,0,0.2214,0.2209,0.2154,0.2175,0.2167,0.2135,0.2124,0.2118,0.2108,0.2075,0.2069,0.2092,0.2044,0.2038,0.202,0.2021,0.2011,0.2009,0.1974,0.1974,0.1975,0.2002,0,0,0,0,0,0,0.2217,0.2209,0.2207,0.2175,0.2166,0.2141,0.2124,0.2117,0.2105,0.2102,0.207,0.2064,0.2043,0.2024,0.2019,0.2018,0.2008,0.1974,0.1974,0.1974,0.2001,0.2004,0.2006,0,0,0,0,0,0.2219,0.2217,0.2208,0.2202,0.2163,0.2141,0.2136,0.2113,0.2105,0.2102,0.2081,0.2065,0.2022,0.2022,0.2016,0.2015,0.1974,0.1974,0.1974,0.2,0.2003,0.2006,0,0,0,0,0,0,0.225,0.2213,0.2201,0.2189,0.2169,0.2136,0.2131,0.2117,0.2097,0.2095,0.2066,0.2059,0.2044,0.2028,0.2029,0.2006,0.1996,0.1995,0.2018,0.202,0.2022,0.2026,0.2006,0,0,0,0,0,0.2256,0.2242,0.221,0.2202,0.2192,0.2164,0.2153,0.2137,0.2114,0.2105,0.2082,0.206,0.2042,0.203,0.2011,0.1999,0.199,0.1995,0.1997,0.1999,0.1999,0.1989,0.1991,0.1976,0.1976,0.1976,0,0,0.2267,0.2244,0.2238,0.2207,0.219,0.2175,0.2157,0.2142,0.213,0.2103,0.2085,0.2068,0.2041,0.2026,0.2018,0.2012,0.2001,0.2,0.2002,0.2,0.199,0.1992,0.1993,0.1976,0.1976,0.1976,0,0,0.2279,0.2262,0.2253,0.2235,0.2209,0.2189,0.2187,0.2156,0.2144,0.2126,0.2104,0.2089,0.2058,0.2039,0.2026,0.203,0.2014,0.2025,0.2036,0.2027,0.2028,0.2029,0.203,0.203,0.2024,0.2025,0.2025,0,0.2296,0.2274,0.225,0.2236,0.2223,0.2197,0.2187,0.2171,0.214,0.213,0.2124,0.2084,0.2064,0.2043,0.2044,0.2035,0.203,0.2028,0.203,0.2031,0.2031,0.2031,0.2032,0.2026,0.2026,0.2026,0.2025,0,0.2295,0.228,0.2276,0.2246,0.2233,0.2221,0.2194,0.2183,0.2167,0.2148,0.2129,0.2105,0.208,0.2074,0.2058,0.205,0.2047,0.2036,0.2025,0.2035,0.2034,0.2034,0.2028,0.2027,0.2027,0.2027,0,0,0.2326,0.2283,0.2282,0.2267,0.2236,0.2223,0.2209,0.2186,0.2176,0.2155,0.2142,0.2115,0.2105,0.2089,0.2071,0.2064,0.2067,0.2053,0.2052,0.2056,0.2055,0.2063,0.2064,0.2057,0.2056,0.2056,0.2057,0,0.2333,0.2308,0.2286,0.2269,0.2254,0.2229,0.2217,0.2195,0.2177,0.2161,0.214,0.2121,0.2109,0.21,0.2091,0.2069,0.2066,0.2068,0.2043,0.2042,0.205,0.2064,0.2072,0.2074,0.2057,0.2057,0.2057,0,0.2338,0.2318,0.23,0.2269,0.2261,0.2251,0.2227,0.2212,0.2187,0.2174,0.2156,0.2137,0.212,0.2111,0.2087,0.2088,0.2076,0.2064,0.2063,0.2059,0.205,0.2059,0.2075,0.2075,0.2056,0.2056,0.2056,0,0.2361,0.2329,0.2314,0.2303,0.2266,0.226,0.2244,0.2218,0.2205,0.2183,0.2174,0.2151,0.2137,0.2119,0.2094,0.209,0.2071,0.206,0.2059,0.206,0.2056,0.2056,0.2069,0.205,0.205,0.205,0.205,0,0.237,0.236,0.2324,0.2314,0.2301,0.2275,0.2262,0.2244,0.2222,0.2207,0.2184,0.2171,0.2139,0.2121,0.2101,0.2083,0.2077,0.2066,0.206,0.2067,0.2069,0.2059,0.2057,0.205,0.205,0.205,0.205,0,0.2394,0.2369,0.2351,0.2318,0.2309,0.2301,0.2272,0.2261,0.2241,0.2223,0.2217,0.2186,0.2164,0.2137,0.2107,0.2093,0.2077,0.2069,0.2085,0.2082,0.2082,0.2082,0.2088,0.2087,0.2069,0.207,0.207,0,0.2401,0.2392,0.2359,0.2348,0.2333,0.2315,0.2302,0.2275,0.2261,0.2231,0.2223,0.22,0.218,0.2145,0.2119,0.2095,0.2086,0.209,0.2082,0.2089,0.2085,0.2086,0.2084,0.2092,0.2092,0.2092,0.2093,0,0.2417,0.2405,0.2386,0.2364,0.2348,0.2329,0.2308,0.23,0.2268,0.2254,0.2232,0.2216,0.2185,0.2161,0.2133,0.2116,0.2098,0.2095,0.2093,0.21,0.211,0.2103,0.209,0.2095,0.2095,0.2095,0.2094,0.2094,0.2431,0.2422,0.2397,0.2377,0.2358,0.2339,0.2327,0.2306,0.2287,0.226,0.2245,0.2223,0.2196,0.2157,0.214,0.2121,0.2115,0.2113,0.2112,0.2112,0.2114,0.2113,0.2116,0.2116,0.2116,0.2116,0.2116,0,0.2445,0.2427,0.2409,0.2381,0.2365,0.2351,0.2327,0.2314,0.2295,0.2272,0.2253,0.2226,0.2203,0.2175,0.2149,0.2139,0.2131,0.2133,0.2133,0.2129,0.2121,0.2125,0.2141,0.2141,0.2141,0.2141,0.2141,0.2141,0.245,0.2433,0.2418,0.2391,0.2373,0.2352,0.2339,0.2321,0.2303,0.2275,0.2255,0.2237,0.2212,0.2184,0.2161,0.2154,0.2145,0.215,0.214,0.2132,0.213,0.2128,0.2131,0.2148,0.2148,0.2149,0.2149,0.2149]},{"header":{"parameterUnit":"m.s-1","parameterCategory":1,"la1":30.2991,"la2":30.254,"lo1":-89.0895,"lo2":-89.0444,"dy":0.0017,"dx":0.0017,"nx":28,"ny":28,"refTime":"2025-05-19T03:00:00:Z","depth":0,"parameterNumber":3,"parameterNumberName":"V-component_of_WINDS"},"data":[0,0,0,0,0,0,0,0,0,0,0,0,0,0,0,0,0,0,0,0,0,0,0,0,0,0,0,0,0,0,0,0,0,0,0,0,0,0,0,0,0,0,0,0,0,0,0,0,0,0,0,0,0,0,0,0,0,0,5.7359,5.736,0,5.7401,5.7401,5.7402,5.7319,5.7317,5.7314,5.7312,5.7349,5.7353,5.7356,0,0,0,0,0,0,0,0,0,0,0,0,0,5.7204,5.7207,5.7359,5.736,5.736,5.7401,5.7401,5.7402,5.732,5.7317,5.7313,5.731,5.7348,5.7352,5.7357,0,0,0,0,0,0,0,0,0,0,0,0,0,5.7261,5.7208,5.7359,5.7325,5.7322,5.7401,5.7401,5.7402,5.7321,5.7317,5.7313,5.7309,5.7347,5.7352,5.7357,5.7471,0,0,5.7373,5.7376,0,0,0,0,0,0,0,0,5.7258,5.7267,5.7329,5.7327,5.7324,5.7351,5.736,5.7425,5.7322,5.7321,5.7311,5.7307,5.7353,5.7357,5.7374,5.7472,5.7474,5.7374,5.7377,5.7379,5.7381,0,0,0,0,0,0,0,5.7254,5.7264,5.7376,5.733,5.7327,5.7305,5.7309,5.7372,5.7359,5.7321,5.7315,5.7321,5.7351,5.7369,5.7374,5.7475,5.7374,5.7378,5.7382,5.7384,5.7667,5.7671,0,0,0,0,0,0,5.7255,5.7262,5.7374,5.7377,5.7281,5.7311,5.7315,5.7346,5.7358,5.7356,5.7325,5.7317,5.7362,5.7368,5.7375,5.7508,5.7379,5.7384,5.7387,5.7662,5.7667,5.7672,0,0,0,0,0,0,5.7252,5.7266,5.7373,5.7318,5.733,5.7318,5.7354,5.7349,5.7368,5.7361,5.7358,5.7346,5.7359,5.7368,5.7447,5.7508,5.7387,5.7391,5.7657,5.7664,5.767,5.7775,0,0,0,0,0,0,5.7248,5.7265,5.731,5.7319,5.7333,5.7446,5.7358,5.7353,5.7377,5.7368,5.738,5.7378,5.7357,5.744,5.7453,5.7513,5.7396,5.7652,5.766,5.7668,5.7766,5.7784,5.78,0,0,0,0,0,5.7243,5.7337,5.7312,5.7326,5.7388,5.745,5.7457,5.7432,5.7383,5.7426,5.7422,5.7378,5.75,5.7449,5.7463,5.7525,5.7648,5.7658,5.7667,5.7758,5.7781,5.7799,0,0,0,0,0,0,5.7332,5.7337,5.731,5.7411,5.7431,5.7436,5.749,5.7456,5.7489,5.7479,5.7444,5.7448,5.7534,5.7537,5.7481,5.7635,5.7565,5.7578,5.763,5.7651,5.7667,5.7664,5.74,0,0,0,0,0,5.7364,5.7416,5.7416,5.7505,5.7516,5.7502,5.7527,5.7506,5.7525,5.7532,5.7534,5.7552,5.7594,5.7623,5.7661,5.7766,5.7767,5.7816,5.7833,5.7847,5.7858,5.7913,5.7934,5.7704,5.7704,5.7704,0,0,5.743,5.7439,5.7473,5.7523,5.7536,5.7588,5.7509,5.7568,5.7606,5.754,5.7616,5.7618,5.7636,5.7729,5.777,5.7734,5.7922,5.7859,5.787,5.7874,5.7925,5.7947,5.7966,5.7711,5.771,5.7709,0,0,5.7576,5.7589,5.7663,5.7678,5.77,5.7689,5.7707,5.7718,5.7717,5.7792,5.7745,5.7788,5.7862,5.7876,5.7894,5.8045,5.8006,5.8059,5.8147,5.8201,5.8219,5.8235,5.8288,5.8307,5.807,5.807,5.8071,0,5.7654,5.7733,5.7706,5.7768,5.7791,5.7736,5.781,5.7825,5.7857,5.7873,5.7834,5.7925,5.7933,5.8028,5.8065,5.8081,5.8099,5.8057,5.8219,5.8234,5.8249,5.8299,5.8319,5.8077,5.8076,5.8075,5.8075,0,5.7828,5.7883,5.794,5.7975,5.8003,5.8072,5.8053,5.8085,5.8061,5.8055,5.8131,5.814,5.8179,5.8199,5.8176,5.8291,5.8269,5.8225,5.8153,5.8277,5.8324,5.8343,5.8086,5.8083,5.8081,5.808,0,0,5.8032,5.805,5.8072,5.8086,5.8105,5.8146,5.8211,5.8251,5.8279,5.8302,5.8355,5.8418,5.8378,5.8397,5.8375,5.8422,5.8541,5.8372,5.8372,5.8402,5.8667,5.8699,5.8722,5.8515,5.8519,5.8521,5.8665,0,5.8176,5.829,5.8267,5.8377,5.8426,5.8375,5.8431,5.8448,5.8443,5.8483,5.8477,5.8523,5.8466,5.8477,5.8522,5.8517,5.8593,5.8506,5.8562,5.8564,5.8559,5.8747,5.8782,5.8917,5.8683,5.8686,5.8688,0,5.836,5.8392,5.8508,5.8519,5.8539,5.859,5.8624,5.8664,5.8681,5.8674,5.8696,5.8665,5.8727,5.8656,5.8741,5.8682,5.8703,5.8704,5.8709,5.8713,5.8634,5.8755,5.8959,5.8979,5.8717,5.8715,5.8713,0,5.8496,5.8568,5.8647,5.8661,5.8676,5.8713,5.872,5.8734,5.8759,5.8788,5.8804,5.8839,5.8859,5.8886,5.8864,5.8815,5.8952,5.888,5.8947,5.8948,5.8978,5.8976,5.9188,5.8993,5.8993,5.8992,5.8992,0,5.866,5.8732,5.8708,5.8757,5.8836,5.8808,5.8887,5.8888,5.89,5.8946,5.8903,5.8947,5.8916,5.8957,5.894,5.9013,5.9022,5.9017,5.9011,5.9021,5.9021,5.9034,5.9023,5.8998,5.8997,5.8996,5.8995,0,5.8825,5.8812,5.8894,5.8902,5.8905,5.8963,5.8969,5.9013,5.9005,5.9064,5.9076,5.9063,5.9109,5.9091,5.9139,5.9127,5.922,5.9202,5.9215,5.921,5.9278,5.9272,5.9505,5.9534,5.9321,5.9323,5.9325,0,5.893,5.8985,5.8999,5.9027,5.9039,5.9085,5.9111,5.9085,5.9113,5.9137,5.9178,5.922,5.9253,5.9328,5.9322,5.9359,5.9341,5.942,5.9346,5.9353,5.9341,5.9338,5.9343,5.9435,5.9437,5.9439,5.9441,0,5.9117,5.9108,5.9148,5.9185,5.9218,5.9245,5.9269,5.9294,5.9269,5.9303,5.935,5.9376,5.9425,5.9467,5.95,5.9505,5.9469,5.9465,5.9482,5.9492,5.9496,5.9494,5.9254,5.9459,5.9457,5.9456,5.9455,5.9454,5.9255,5.9301,5.9318,5.9364,5.9379,5.9402,5.9444,5.9442,5.9481,5.9521,5.9502,5.9557,5.9572,5.9611,5.9622,5.9663,5.9632,5.9657,5.9664,5.967,5.9679,5.949,5.9669,5.9668,5.9668,5.9667,5.9667,0,5.944,5.9448,5.949,5.9526,5.9561,5.9525,5.9549,5.9581,5.963,5.9647,5.9681,5.9734,5.9775,5.9773,5.981,5.9843,5.9827,5.9853,5.985,5.9852,5.9705,5.9686,5.9866,5.9866,5.9866,5.9865,5.9865,5.9865,5.954,5.9616,5.9609,5.9692,5.9699,5.9753,5.977,5.979,5.9804,5.9867,5.9901,5.99,5.9909,5.9946,5.9982,5.998,5.9995,6.0028,6.0019,5.9882,5.9862,5.9844,5.9826,6.0031,6.0032,6.0163,6.0164,6.0165]}]]